User: anonymous   Login
Location: Calvatone
(45.1167°N, 10.4333°E)
Time: 19:43:46
(UTC+00:00)
Language:

ATLAS 2AS CENTAUR R/B - Orbit

View from above orbital plane
View from above orbital plane
View from above satellite
View from above satellite

Ground track
Ground track

The orbit data is extracted from the following two-line orbital elements,

1 28096U 03054B   24141.21155987  .00000025  00000-0  19534-3 0  9999
2 28096  63.6762 148.6909 0120342 171.0425 189.2788 13.40971600   774
Epoch (UTC): 20 May 2024 05:04:38
Eccentricity: 0.0120342
inclination: 63.6762°
perigee height: 1015 km
apogee height: 1196 km
right ascension of ascending node: 148.6909°
argument of perigee: 171.0425°
revolutions per day: 13.40971600
mean anomaly at epoch: 189.2788°
orbit number at epoch: 77

The dashed part of the orbit path shows where the satellite is in the earth's shadow,  

DLR